map of BKI home
Great Circle Mapper logo
BKI - Airport
Location
City:  Kota-Kinabalu, Sabah, Borneo, Malaysia
Name:Kota-Kinabalu International Airport
ICAO / IATA:WBKK / BKI

Details
Type:Airport (Aerodrome, Airfield)
Use:Public/Civil, International (customs port of entry)
Latitude:5°56'14"N (5.937208)
Longitude:116°03'04"E (116.051181)
Datum:WGS 1984
Elevation:10 ft (3 m)
Runways:1
Longest:9800 × 150 ft (2987 × 45.5 m), paved

Time
Time Zone:UTC+8
Local Time:

Weather
METAR:WBKK 011300Z 10004KT 060V140 9999 FEW014 SCT140 BKN270 28/23 Q1010 NOSIG
TAF:WBKK 010500Z 0106/0206 29005KT 9999 FEW015 SCT140 BKN280
BECMG 0111/0114 11007KT

Related Locations
Nearby:
Farthest:LBR: 12326 mi / 19837 km
Lábrea, AM, BR

Find:

   beyond  
but within

Other Information
Maps:
NOTAMs:
Links:
Sources:

  
flag of Malaysia   

Sectional Chart

Flight Planning
at skyvector.com

Satellite Image

Google Maps Satellite View

 

Copyright © 2004-2014 Karl L. Swartz. All rights reserved.
The Great Circle Mapper name and logo are trademarks of the Great Circle Mapper.
All other trademarks mentioned herein belong to their respective owners.
Please see credits for attibutions and further copyright information.

  Follow gcmap on Facebook Follow gcmap on Twitter

hCard Microformat

Geo Microformat